STARLINK-32824, 62817

Orbit data source: Space-Track

STARLINK-32824, 62817 is a payload satellite owned by SpaceX/Seattle (US) in LEO that was launched on Fri, 24 Jan 2025 UTC via an FALCON 9 launch vehicle from the Air Force Western Test Range (AFWTR). Payload-class satellites include a variety of spacecraft equipped with specific instruments for various scientific and technological missions. These include communications satellites like Starlink; space stations such as the ISS; scientific satellites like the Hubble; Earth observation satellites from companies like Planet Labs, Umbra, and HawkEye 360; GPS; miniature CubeSats for education and research; and military/defense satellites.

Loading next visibility...
Identifier
62817, 2025-018M
Orbit
LEO
Last TLE update
11 hours ago
Origin
Manufacturer
SpaceX/Seattle
Mission
Operational Commercial Communications
Bus & Motor
STARLINK V2M, Unknown motor
Mass
730 kg wet, ~700 kg dry
Launch date (UTC)
2025-01-24 (5 months ago)
Launch vehicle
FALCON 9
Launch site
Air Force Western Test Range (AFWTR)
Object type
Payload
Rocket body
Debris
Shape & HBR
Box + 2 Pan, 29 m
Radar Cross Section
33.884 m², Large (>1 m²)

Expand to show TLE details & history

TLE from 11 hours ago
0 STARLINK-32824
1 62817U 25018M   25181.91718774  .00007448  00000-0  26333-3 0  9994
2 62817  53.1596  38.8603 0001181 121.7826 238.3290 15.30199257 25579
Epoch: 2025-06-30T22:00Z
TLE epoch observation values (Epoch: 2025-06-30T22:00:45.02Z)
Latitude
-0.00003°
Longitude
149.45258°
Altitude
476.542 km
Speed
7.628 km/s
True Right ascension
02h 35m 26s
True Declination
0° 00' 00"
Sunlit
Object was in daylight at epoch
Visualization orbit readout
Latitude
-51.40768°
Longitude
78.39307°
Altitude
493.762 km
Speed
7.617 km/s
Apparent Right ascension
04h 14m 13s
Apparent Declination
-78° 13' 00"
Sunlit
Object is in full shadow
Visualization observer readout
Local Sidereal Time
20:17:07
Azimuth
165.459° S
Elevation
-44.808°
Doppler factor
1
Orbital elements
Apogee altitude
476.283 km
Perigee altitude
474.664 km
Semi-major axis
6,853.611 km
Eccentricity
0.00012
Inclination
53.1596°
RAAN
38.8603°
Arg. of periapsis
121.7826°
True anomaly
Unknown
Mean anomaly
238.329°
Eccentric anomaly
Unknown
Mean motion
3.82529 °/min
Orbital period
94.11 mins
BSTAR
0.00026333
Loading maneuver chart data...
Loading SW <> Apogee altitude chart data...
Loading historical data...
Loading historical data...
Loading historical data...
Loading historical data...
Loading historical data...
Loading historical data...
Loading historical data...

STARLINK-32824 Visibility forecast

Observer location: undefined°, undefined°

Span
Click to sort rows by Start time (UTC) header in descending order
Start Az.
Max El. time (UTC)
Max El. Az.
Max El.
End time (UTC)
End Az.
6 mins2025-07-01 16:59:58.128Z218.04° SW2025-07-01 17:02:58.128Z112.578° SE42.332°2025-07-01 17:05:58.128Z55.537° ENE
5 mins2025-07-01 23:35:58.128Z327.262° NNW2025-07-01 23:37:58.128Z50.392° ENE39.599°2025-07-01 23:40:58.128Z114.942° SE
|